TimeMDT,TemperatureF,Dew PointF,Humidity,Sea Level PressureIn,VisibilityMPH,Wind Direction,Wind SpeedMPH,Gust SpeedMPH,PrecipitationIn,Events,Conditions,WindDirDegrees,DateUTC
12:15 AM,35.6,26.6,70,29.70,10.0,SSE,8.1,-,N/A,,Clear,160,2013-04-13 06:15:00
12:55 AM,35.6,26.6,70,29.67,10.0,SE,10.4,-,N/A,,Clear,140,2013-04-13 06:55:00
1:35 AM,35.6,24.8,65,29.65,10.0,SSE,9.2,-,N/A,,Clear,160,2013-04-13 07:35:00
1:55 AM,35.6,26.6,70,29.63,10.0,South,5.8,-,N/A,,Clear,170,2013-04-13 07:55:00
2:15 AM,35.6,26.6,70,29.62,10.0,SSE,6.9,-,N/A,,Clear,160,2013-04-13 08:15:00
2:35 AM,33.8,26.6,75,29.61,10.0,Calm,Calm,-,N/A,,Clear,0,2013-04-13 08:35:00
2:55 AM,33.8,26.6,75,29.59,10.0,South,5.8,-,N/A,,Clear,190,2013-04-13 08:55:00
3:15 AM,33.8,24.8,70,29.58,10.0,SSW,4.6,-,N/A,,Clear,200,2013-04-13 09:15:00
3:35 AM,35.6,26.6,70,29.57,10.0,NW,4.6,-,N/A,,Clear,320,2013-04-13 09:35:00
3:55 AM,33.8,24.8,70,29.56,10.0,Calm,Calm,-,N/A,,Clear,0,2013-04-13 09:55:00
4:15 AM,33.8,26.6,75,29.55,10.0,Calm,Calm,-,N/A,,Clear,0,2013-04-13 10:15:00
4:35 AM,33.8,26.6,75,29.53,10.0,South,10.4,16.1,N/A,,Clear,190,2013-04-13 10:35:00
4:55 AM,42.8,26.6,53,29.52,10.0,WNW,13.8,21.9,N/A,,Clear,300,2013-04-13 10:55:00
5:15 AM,35.6,24.8,65,29.53,10.0,NNW,6.9,17.3,N/A,,Clear,340,2013-04-13 11:15:00
5:35 AM,42.8,32.0,66,29.51,10.0,West,16.1,27.6,N/A,,Clear,280,2013-04-13 11:35:00
5:55 AM,42.8,30.2,61,29.50,10.0,West,12.7,25.3,N/A,,Clear,280,2013-04-13 11:55:00
6:15 AM,42.8,30.2,61,29.50,10.0,WNW,15.0,23.0,N/A,,Clear,290,2013-04-13 12:15:00
6:35 AM,42.8,30.2,61,29.49,10.0,West,18.4,25.3,N/A,,Clear,270,2013-04-13 12:35:00
6:55 AM,42.8,30.2,61,29.49,10.0,West,10.4,19.6,N/A,,Clear,270,2013-04-13 12:55:00
7:15 AM,42.8,30.2,61,29.49,10.0,West,8.1,17.3,N/A,,Partly Cloudy,280,2013-04-13 13:15:00
7:35 AM,42.8,30.2,61,29.48,10.0,West,9.2,-,N/A,,Partly Cloudy,260,2013-04-13 13:35:00
7:55 AM,42.8,30.2,61,29.48,10.0,West,12.7,18.4,N/A,,Partly Cloudy,260,2013-04-13 13:55:00
8:15 AM,44.6,28.4,53,29.47,10.0,WSW,12.7,19.6,N/A,,Clear,240,2013-04-13 14:15:00
8:35 AM,44.6,30.2,57,29.46,10.0,SSW,9.2,17.3,N/A,,Clear,210,2013-04-13 14:35:00
8:55 AM,44.6,30.2,57,29.44,10.0,SW,16.1,21.9,N/A,,Clear,220,2013-04-13 14:55:00
9:35 AM,46.4,30.2,53,29.43,10.0,SSW,8.1,-,N/A,,Mostly Cloudy,200,2013-04-13 15:35:00
9:55 AM,46.4,30.2,53,29.42,10.0,WNW,4.6,-,N/A,,Overcast,300,2013-04-13 15:55:00
10:15 AM,46.4,30.2,53,29.42,10.0,NNW,11.5,-,N/A,,Overcast,340,2013-04-13 16:15:00
10:35 AM,46.4,30.2,53,29.42,10.0,North,5.8,-,N/A,,Overcast,350,2013-04-13 16:35:00
10:55 AM,46.4,30.2,53,29.41,10.0,WNW,6.9,-,N/A,,Overcast,300,2013-04-13 16:55:00
11:15 AM,46.4,30.2,53,29.41,10.0,Calm,Calm,-,N/A,,Overcast,0,2013-04-13 17:15:00
11:35 AM,46.4,30.2,53,29.40,10.0,South,9.2,-,N/A,,Overcast,170,2013-04-13 17:35:00
11:55 AM,46.4,30.2,53,29.39,10.0,SSE,8.1,-,N/A,,Overcast,150,2013-04-13 17:55:00
12:35 PM,46.4,32.0,57,29.38,10.0,WSW,4.6,-,N/A,,Overcast,240,2013-04-13 18:35:00
1:15 PM,48.2,33.8,58,29.35,10.0,West,4.6,-,N/A,,Overcast,280,2013-04-13 19:15:00
1:35 PM,48.2,33.8,58,29.33,10.0,NNW,4.6,-,N/A,,Overcast,340,2013-04-13 19:35:00
1:55 PM,48.2,33.8,58,29.33,10.0,WNW,5.8,-,N/A,,Overcast,300,2013-04-13 19:55:00
2:15 PM,50.0,32.0,50,29.32,10.0,SE,4.6,-,N/A,,Overcast,140,2013-04-13 20:15:00
2:35 PM,51.8,33.8,50,29.32,10.0,NE,6.9,-,N/A,,Overcast,40,2013-04-13 20:35:00
3:15 PM,37.4,32.0,81,29.37,10.0,North,26.5,33.4,N/A,,Overcast,10,2013-04-13 21:15:00
3:35 PM,35.6,30.2,81,29.38,10.0,NNE,20.7,-,N/A,,Overcast,20,2013-04-13 21:35:00
3:55 PM,33.8,30.2,87,29.42,2.5,North,19.6,42.6,N/A,,Mostly Cloudy,10,2013-04-13 21:55:00
4:15 PM,33.8,30.2,87,29.41,1.0,NNE,11.5,23.0,N/A,,Overcast,20,2013-04-13 22:15:00
4:35 PM,32.0,30.2,93,29.40,0.8,NNE,9.2,-,N/A,,Overcast,30,2013-04-13 22:35:00
4:55 PM,32.0,30.2,93,29.41,8.0,NNE,9.2,-,0.02,,Overcast,20,2013-04-13 22:55:00
5:15 PM,33.8,32.0,93,29.42,10.0,North,11.5,-,0.01,,Overcast,10,2013-04-13 23:15:00
5:35 PM,33.8,30.2,87,29.42,10.0,North,10.4,17.3,0.01,,Overcast,10,2013-04-13 23:35:00
5:55 PM,33.8,30.2,87,29.42,8.0,NE,9.2,-,0.01,,Overcast,40,2013-04-13 23:55:00
6:15 PM,33.8,30.2,87,29.41,10.0,NE,9.2,-,N/A,,Overcast,40,2013-04-14 00:15:00
6:35 PM,33.8,32.0,93,29.42,10.0,NNE,9.2,-,N/A,,Overcast,20,2013-04-14 00:35:00
6:55 PM,33.8,30.2,87,29.44,6.0,NNE,8.1,-,N/A,,Overcast,30,2013-04-14 00:55:00
7:15 PM,33.8,30.2,87,29.45,1.2,North,18.4,-,N/A,,Overcast,350,2013-04-14 01:15:00
7:35 PM,32.0,30.2,93,29.44,1.8,NNE,8.1,-,N/A,,Overcast,30,2013-04-14 01:35:00
7:55 PM,32.0,30.2,93,29.45,3.0,North,3.5,-,N/A,,Overcast,10,2013-04-14 01:55:00
8:15 PM,32.0,30.2,93,29.47,2.0,NNE,12.7,20.7,N/A,,Overcast,20,2013-04-14 02:15:00
8:35 PM,30.2,28.4,93,29.48,7.0,NNE,17.3,20.7,N/A,,Overcast,20,2013-04-14 02:35:00
8:55 PM,30.2,28.4,93,29.50,7.0,North,12.7,-,N/A,,Overcast,360,2013-04-14 02:55:00
9:15 PM,30.2,26.6,86,29.52,7.0,North,12.7,19.6,N/A,,Overcast,360,2013-04-14 03:15:00
9:35 PM,30.2,26.6,86,29.53,8.0,North,10.4,-,N/A,,Overcast,360,2013-04-14 03:35:00
9:55 PM,28.4,26.6,93,29.54,1.5,North,13.8,18.4,N/A,,Overcast,360,2013-04-14 03:55:00
10:15 PM,28.4,26.6,93,29.55,1.0,North,10.4,18.4,N/A,,Overcast,350,2013-04-14 04:15:00
10:35 PM,28.4,26.6,93,29.55,1.2,NNE,8.1,-,N/A,,Overcast,20,2013-04-14 04:35:00
10:56 PM,28.4,26.6,93,29.55,2.0,NNE,9.2,-,N/A,,Overcast,20,2013-04-14 04:56:00
11:15 PM,28.4,26.6,93,29.56,3.0,NE,9.2,-,N/A,,Overcast,40,2013-04-14 05:15:00
11:35 PM,26.6,24.8,93,29.56,9.0,NNE,11.5,-,N/A,,Overcast,30,2013-04-14 05:35:00
11:55 PM,26.6,24.8,93,29.56,10.0,NNE,11.5,-,N/A,,Overcast,30,2013-04-14 05:55:00